Weather History for Calgary Springbank, AB

Change the Weather History Date:

Friday, May 10, 2013

  Actual Average Record
Temperature  
Mean Temperature 46 °F -  
Max Temperature 62 °F 58 °F 64 °F (2011)
Min Temperature 29 °F 35 °F 19 °F (2002)
Degree Days  
Heating Degree Days 20    
Moisture  
Dew Point 29 °F    
Average Humidity 44    
Maximum Humidity 87    
Minimum Humidity 18    
Precipitation  
Precipitation 0.00 in - - ()
Sea Level Pressure  
Sea Level Pressure 30.44 in    
Wind  
Wind Speed 7 mph ()    
Max Wind Speed 17 mph    
Max Gust Speed 24 mph    
Visibility 15.0 miles    
Events      
Averages and records for this station are not official NWS values.
T = Trace of Precipitation, MM = Missing Value Source: Averaged Metar Reports

Daily Weather History Graph

Daily Weather History Graph

Search for Another Location

Airport:

Trip Planner

Search our weather history database for the weather conditions in past years. The results will help you decide how hot, cold, wet, or windy it might be!

Date:

Astronomy

May. 10, 2013 Rise Set
Actual Time 5:54 AM MDT 9:14 PM MDT
Civil Twilight 5:14 AM MDT 9:54 PM MDT
Nautical Twilight 4:21 AM MDT 10:47 PM MDT
Astronomical Twilight 3:10 AM MDT 12:00 AM MDT
Moon 6:20 AM MDT (5/10) 10:10 PM MDT (5/10)
Length of Visible Light 16h 39m
Length of Day
15h 20m
New Moon, 1% of the Moon is Illuminated
May 10
New Moon
May 17
First Quarter
May 24
Full
May 31
Last Quarter
Jun 8
New

Hourly Weather History & Observations

Time (MDT) Temp. Windchill Dew Point Humidity Pressure Visibility Wind Dir Wind Speed Gust Speed Precip Events Conditions
5:00 AM 33.8 °F 30.8 °F 28.4 °F 81% 30.44 in 15.0 mi WNW 3.5 mph - N/A   Partly Cloudy
6:00 AM 35 °F - 30 °F 74% 30.45 in 25 mi NW 2.3 mph - -   Clear
6:00 AM 35.6 °F - 30.2 °F 81% 30.45 in 25.0 mi NW 2.3 mph - N/A   Partly Cloudy
7:00 AM 32.0 °F - 28.4 °F 87% 30.47 in 30.0 mi WNW 2.3 mph - N/A   Partly Cloudy
8:00 AM 44.6 °F 43.1 °F 32.0 °F 61% 30.47 in 30.0 mi SSW 3.5 mph - N/A   Partly Cloudy
9:00 AM 46.4 °F 45.2 °F 30.2 °F 53% 30.49 in 30.0 mi SSE 3.5 mph - N/A   Scattered Clouds
10:00 AM 50.0 °F - 30.2 °F 47% 30.48 in 30.0 mi SSE 6.9 mph - N/A   Scattered Clouds
11:00 AM 53.6 °F - 30.2 °F 41% 30.45 in 30.0 mi SE 6.9 mph - N/A   Scattered Clouds
12:00 PM 55 °F - 29 °F 25% 30.45 in 28 mi SE 11.5 mph - -   Partly Cloudy
12:00 PM 55.4 °F - 30.2 °F 38% 30.45 in 30.0 mi SE 10.4 mph 17.3 mph N/A   Mostly Cloudy
12:18 PM 55.4 °F - 28.4 °F 36% 30.45 in 30.0 mi East 5.8 mph - N/A   Mostly Cloudy
1:00 PM 57.2 °F - 28.4 °F 33% 30.45 in 30.0 mi SSE 9.2 mph 17.3 mph N/A   Mostly Cloudy
2:00 PM 59.0 °F - 28.4 °F 31% 30.44 in 30.0 mi SSE 9.2 mph 17.3 mph N/A   Mostly Cloudy
3:00 PM 60.8 °F - 28.4 °F 29% 30.44 in 30.0 mi ESE 12.7 mph 23.0 mph N/A   Scattered Clouds
4:00 PM 60.8 °F - 28.4 °F 29% 30.44 in 30.0 mi ESE 13.8 mph 23.0 mph N/A   Scattered Clouds
5:00 PM 60.8 °F - 28.4 °F 29% 30.44 in 30.0 mi SE 17.3 mph 24.2 mph N/A   Partly Cloudy
6:00 PM 61 °F - 28 °F 18% 30.42 in 28 mi SE 12.7 mph - -   Scattered Clouds
6:00 PM 60.8 °F - 28.4 °F 29% 30.42 in 30.0 mi SE 16.1 mph - N/A   Partly Cloudy
7:00 PM 59.0 °F - 28.4 °F 31% 30.41 in 30.0 mi ESE 13.8 mph 19.6 mph N/A   Partly Cloudy
8:00 PM 55.4 °F - 28.4 °F 36% 30.39 in 30.0 mi ESE 15.0 mph - N/A   Partly Cloudy
9:00 PM 51.8 °F - 26.6 °F 38% 30.40 in 30.0 mi ESE 16.1 mph - N/A   Partly Cloudy
10:00 PM 48.2 °F - 26.6 °F 43% 30.35 in 15.0 mi SE 12.7 mph 18.4 mph N/A   Clear